This demonstration page uses our WeatherBlox Daily Observations layout. Learn more.

Left ArrowRight Arrow

Hourly Observations for July 31, 2021

Temp ( °F °C ) Dew Point ( °F °C ) Humidity (%) Winds ( mph kmh ) Pressure ( in mb ) Visibility ( mi km ) Precip ( " mm )
12:15 am 00:15 Cloudy with Mist and Fog 77 24.9 74 23.6 93 93 E 10 17 29.93 1014 4 6 N/A
12:35 am 00:35 Cloudy with Mist and Fog 76 24.5 74 23.5 94 94 NE 8 13 29.93 1014 4 6 N/A
12:55 am 00:55 Cloudy with Mist and Fog 75 24.1 73 23 94 94 NE 12 19 29.94 1014 4 6 N/A
1:15 am 01:15 Cloudy with Mist and Fog 74 23.3 71 21.8 91 91 NE 14 22 29.97 1015 5 8 N/A
1:35 am 01:35 Cloudy with Mist and Fog 73 22.6 69 20.7 89 89 NE 18 30 29.98 1015 5 8 N/A
1:55 am 01:55 Cloudy with Mist and Fog 72 22.2 68 20.1 88 88 ENE 17 28 29.97 1015 5 8 N/A
2:15 am 02:15 Mostly Cloudy with Mist and Fog 71 21.7 67 19.7 88 88 ENE 8 13 29.98 1015 5 8 N/A
2:35 am 02:35 Clear with Mist and Fog 71 21.6 67 19.7 89 89 NE 8 13 29.99 1016 5 8 N/A
2:55 am 02:55 Mostly Cloudy with Mist and Fog 71 21.5 67 19.6 89 89 ENE 6 9 29.99 1016 5 8 N/A
3:15 am 03:15 Mostly Cloudy with Mist and Fog 71 21.5 67 19.5 88 88 ENE 9 15 30.01 1016 5 8 N/A
3:35 am 03:35 Partly Cloudy with Mist and Fog 70 21.3 66 19 87 87 ENE 8 13 30.00 1016 5 8 N/A
3:55 am 03:55 Partly Cloudy with Mist and Fog 70 21 66 19 88 88 NE 3 6 30.01 1016 5 8 N/A
4:15 am 04:15 Partly Cloudy with Mist and Fog 69 20.5 66 19.1 92 92 N N/A 30.02 1017 5 8 N/A
4:35 am 04:35 Partly Cloudy with Mist and Fog 69 20.5 66 19 91 91 NNE 3 6 30.02 1017 5 8 N/A
4:55 am 04:55 Partly Cloudy with Mist and Fog 69 20.5 66 19 91 91 N 5 7 30.02 1017 5 8 N/A
5:15 am 05:15 Clear with Mist and Fog 68 20.2 66 19 93 93 NE 3 6 30.01 1016 5 8 N/A
5:35 am 05:35 Partly Cloudy with Mist and Fog 68 20.2 66 18.8 92 92 ENE 5 7 30.02 1017 5 8 N/A
5:55 am 05:55 Partly Cloudy with Mist and Fog 68 20 66 18.7 92 92 E 3 6 30.01 1016 5 8 N/A
6:15 am 06:15 Partly Cloudy with Mist and Fog 68 19.8 66 18.7 93 93 N 3 6 30.03 1017 5 8 N/A
6:35 am 06:35 Partly Cloudy with Mist and Fog 67 19.5 66 18.7 95 95 NNW 5 7 30.06 1018 4 6 N/A
6:55 am 06:55 Cloudy with Mist and Fog 68 20 66 19 94 94 N 5 7 30.06 1018 4 6 N/A
7:15 am 07:15 Cloudy 69 20.5 67 19.2 92 92 NNE 5 7 30.06 1018 10 16 N/A
7:35 am 07:35 Cloudy 69 20.7 67 19.2 91 91 NNE 3 6 30.07 1018 10 16 N/A
7:55 am 07:55 Cloudy 69 20.5 66 19 91 91 N 5 7 30.09 1019 7 11 N/A
8:15 am 08:15 Cloudy with Mist and Fog 69 20.5 66 19.1 92 92 N 3 6 30.09 1019 5 8 N/A
8:35 am 08:35 Cloudy with Mist and Fog 69 20.5 66 19.1 92 92 NNE 10 17 30.10 1019 5 8 N/A
8:55 am 08:55 Cloudy with Mist and Fog 68 20 66 18.8 93 93 N 13 20 30.11 1020 3 5 N/A
9:15 am 09:15 Cloudy with Mist and Fog 67 19.7 65 18.5 93 93 N 6 9 30.11 1020 3 4 N/A
9:35 am 09:35 Cloudy with Mist and Fog 67 19.5 65 18.5 94 94 N 7 11 30.13 1020 2 3 N/A
9:55 am 09:55 Cloudy with Mist and Fog 67 19.5 65 18.3 93 93 N 7 11 30.13 1020 3 4 N/A
10:15 am 10:15 Cloudy with Mist and Fog 68 19.9 64 18 89 89 NNE 9 15 30.11 1020 3 5 N/A
10:35 am 10:35 Cloudy with Mist and Fog 68 20.1 64 18 88 88 NNE 12 19 30.12 1020 4 6 N/A
10:55 am 10:55 Cloudy with Mist and Fog 68 20 64 17.9 88 88 NE 13 20 30.11 1020 4 6 N/A
11:15 am 11:15 Cloudy with Mist and Fog 68 20.1 64 17.9 87 87 ENE 14 22 30.11 1020 4 6 N/A
11:35 am 11:35 Cloudy with Mist and Fog 68 20.1 64 17.8 87 87 NE 12 19 30.12 1020 3 5 N/A
11:55 am 11:55 Cloudy with Mist and Fog 68 20 64 18 88 88 NE 9 15 30.14 1021 3 5 N/A
12:15 pm 12:15 Cloudy with Haze 69 20.4 64 18 86 86 NE 9 15 30.14 1021 3 5 N/A
12:35 pm 12:35 Cloudy with Haze 70 21.1 65 18.1 83 83 NE 3 6 30.13 1020 4 6 N/A
12:55 pm 12:55 Cloudy with Haze 70 21 65 18.1 84 84 ENE 6 9 30.13 1020 4 6 N/A
1:15 pm 13:15 Cloudy with Haze 70 21.3 65 18.3 83 83 N N/A 30.13 1020 4 6 N/A
1:35 pm 13:35 Cloudy with Haze 71 21.6 65 18.3 82 82 N N/A 30.13 1020 4 6 N/A
1:55 pm 13:55 Cloudy with Haze 71 21.5 65 18.5 83 83 N N/A 30.14 1021 4 6 N/A
2:15 pm 14:15 Cloudy with Haze 71 21.6 65 18.4 82 82 NNE 3 6 30.14 1021 4 6 N/A
2:35 pm 14:35 Cloudy with Haze 71 21.9 65 18.5 81 81 N N/A 30.14 1020 4 6 N/A
2:55 pm 14:55 Cloudy with Haze 72 22.1 65 18.5 80 80 N N/A 30.13 1020 4 6 N/A
3:15 pm 15:15 Mostly Cloudy with Haze 72 22.1 66 18.7 81 81 NNW 8 13 30.13 1020 4 6 N/A
3:35 pm 15:35 Hazy 73 22.5 66 18.7 79 79 NW 10 17 30.13 1020 4 6 N/A
3:55 pm 15:55 Mostly Cloudy with Haze 73 22.5 65 18.6 79 79 NW 12 19 30.13 1020 4 6 N/A
4:15 pm 16:15 Mostly Cloudy with Haze 73 22.9 65 18.3 75 75 NNW 10 17 30.13 1020 4 6 N/A
4:35 pm 16:35 Hazy 73 23 65 18.5 76 76 NNW 9 15 30.12 1020 4 6 N/A
4:55 pm 16:55 Hazy 73 23 65 18.4 75 75 NNW 7 11 30.11 1019 4 6 N/A
5:15 pm 17:15 Hazy 73 23 65 18.3 75 75 NW 7 11 30.11 1019 4 6 N/A
5:35 pm 17:35 Hazy 73 23 64 18 74 74 NW 6 9 30.11 1019 4 6 N/A
5:55 pm 17:55 Hazy 73 23 65 18.4 75 75 NW 6 9 30.11 1019 4 6 N/A
6:15 pm 18:15 Hazy 74 23.1 65 18.6 76 76 NNW 6 9 30.09 1019 4 6 N/A
6:35 pm 18:35 Partly Cloudy with Light Rain 73 22.8 66 19.1 80 80 NW 3 6 30.09 1019 3 5 N/A
6:55 pm 18:55 Hazy 73 22.5 66 19 81 81 NW 7 11 30.09 1019 4 6 N/A
7:15 pm 19:15 Hazy 73 22.5 67 19.2 82 82 NW 6 9 30.09 1019 4 6 N/A
7:35 pm 19:35 Hazy 72 22.2 67 19.5 85 85 WNW 5 7 30.08 1019 3 5 N/A
7:55 pm 19:55 Hazy 72 22.2 67 19.6 85 85 N N/A 30.08 1019 3 5 N/A
8:15 pm 20:15 Partly Cloudy with Mist and Fog 72 22.2 67 19.7 86 86 WNW 3 6 30.08 1019 3 5 N/A
8:35 pm 20:35 Partly Cloudy with Mist and Fog 71 21.8 68 19.9 89 89 N N/A 30.09 1019 3 4 N/A
8:55 pm 20:55 Partly Cloudy with Mist and Fog 70 21.3 67 19.7 91 91 N N/A 30.09 1019 3 4 N/A
9:15 pm 21:15 Clear with Mist and Fog 70 20.9 67 19.5 92 92 N N/A 30.09 1019 3 5 N/A
9:35 pm 21:35 Clear with Mist and Fog 68 20.1 66 19.1 94 94 W 3 6 30.11 1020 3 5 N/A
9:55 pm 21:55 Clear with Mist and Fog 67 19.7 66 18.9 95 95 W 3 6 30.12 1020 3 5 N/A
10:15 pm 22:15 Clear with Mist and Fog 67 19.3 65 18.5 95 95 N N/A 30.14 1021 3 4 N/A
10:35 pm 22:35 Clear with Mist and Fog 66 19 65 18.5 97 97 WNW 3 6 30.14 1021 3 5 N/A
10:55 pm 22:55 Clear with Mist and Fog 64 18 64 17.5 97 97 WNW 3 6 30.15 1021 2 3 N/A
11:15 pm 23:15 Mostly Cloudy with Mist and Fog 64 17.5 63 17.1 98 98 NW 3 6 30.15 1021 2 3 N/A
11:35 pm 23:35 Mostly Cloudy with Mist and Fog 64 17.8 64 17.5 98 98 NW 6 9 30.17 1022 2 3 N/A
11:55 pm 23:55 Mostly Cloudy with Mist and Fog 65 18.2 64 17.7 97 97 NW 5 7 30.17 1022 2 3 N/A

Powered by AerisWeather